STARLINK-36946, 68382

Orbit data source: Space-Track

STARLINK-36946, 68382 is a payload satellite owned by SpaceX/Seattle (US) in SSO that was launched on Thu, 26 Mar 2026 UTC via an FALCON 9 launch vehicle from the Air Force Western Test Range (AFWTR). Payload-class satellites include a variety of spacecraft equipped with specific instruments for various scientific and technological missions. These include communications satellites like Starlink; space stations such as the ISS; scientific satellites like the Hubble; Earth observation satellites from companies like Planet Labs, Umbra, and HawkEye 360; GPS; miniature CubeSats for education and research; and military/defense satellites.

Loading next visibility...
Identifier
68382, 2026-063C
Orbit
SSO
Country
Flag of USUS
Related business
Manufacturer
SpaceX/Seattle
Mission
Operational spacecraft
Bus & Motor
STARLINK V2MO, Unknown motor
Mass
575 kg wet, ~530 kg dry
Launch date (UTC)
2026-03-26 (2 weeks ago)
Launch vehicle
FALCON 9
Launch site
Air Force Western Test Range (AFWTR)
Object type
Payload
Rocket body
Debris
Shape & HBR
Unknown shape, 17.7 m
Radar Cross Section
RCS unknown

Expand to show TLE details & history
Last TLE update: 8 hours ago

TLE from 8 hours ago
0 STARLINK-36946
1 68382U 26063C   26102.25743283  .00091940  00000-0  47532-3 0  9996
2 68382  97.2840 243.6607 0001221  68.9289 291.2110 15.80833025  2929
Epoch: 2026-04-12T06:10Z
TLE epoch observation values (Epoch: 2026-04-12T06:10:42.196Z)
Latitude
Longitude
-49.4801°
Altitude
330.963 km
Speed
7.71 km/s
True Right ascension
16h 14m 38s
True Declination
0° 00' 00"
Sunlit
Object was in full shadow at epoch
Visualization orbit readout
Latitude
Unknown
Longitude
Unknown
Altitude
Unknown
Speed
Unknown
Apparent Right ascension
Unknown
Apparent Declination
Unknown
Sunlit
N/A
Visualization observer readout
Local Sidereal Time
20:19:46
Azimuth
Unknown
Elevation
Unknown
Doppler factor
Unknown
Orbital elements
Apogee altitude
325.782 km
Perigee altitude
324.145 km
Semi-major axis
6,703.101 km
Eccentricity
0.00012
Inclination
97.284°
RAAN
243.6607°
Arg. of periapsis
68.9289°
True anomaly
291.19796°
Mean anomaly
291.211°
Eccentric anomaly
291.20448°
Mean motion
3.95485 °/min
Orbital period
91.03 mins
BSTAR
0.00047532
Loading maneuver chart data...
Computing Atmospheric mass density...
Loading historical data...
Loading historical data...
Loading historical data...
Loading historical data...
Loading historical data...
Loading historical data...
Loading historical data...

Documentation

Showing up to 5 results
|